Location: Redwood City
(37.4850°N, 122.2350°W)
Time: 11:13:22
(UTC-07:00)

ISS - Visible Passes

Search period start: 01 August 2015 00:00
Search period end: 11 August 2015 00:00
Orbit: 401 x 403 km, 51.6° (Epoch: 01 August)

Date Brightness Start Highest point End Pass type
(mag) Time Alt. Az. Time Alt. Az. Time Alt. Az.
01 Aug -2.2 04:00:55 16° NNW 04:03:16 43° NE 04:06:24 10° ESE visible
01 Aug -1.7 05:37:19 10° W 05:39:28 16° SW 05:41:32 10° S visible
01 Aug -0.8 22:14:54 10° W 22:17:35 23° NNW 22:20:14 10° NNE visible
02 Aug -1.7 04:48:16 20° S 04:48:16 20° S 04:49:34 10° SSE visible
02 Aug -1.8 21:21:21 10° WSW 21:24:26 39° NW 21:27:31 10° NE visible
03 Aug -0.1 22:06:29 10° NW 22:08:17 14° NNW 22:10:01 10° N visible
04 Aug -0.5 21:12:28 10° WNW 21:15:00 20° NNW 21:17:30 10° NNE visible
06 Aug -0.2 21:04:08 10° NW 21:05:40 13° NNW 21:07:08 10° N visible
09 Aug 0.1 23:16:34 10° N 23:16:50 11° N 23:16:50 11° N visible
